COSMOS 2251 DEB, 34059

Orbit data source: Space-Track

COSMOS 2251 DEB, 34059 is space debris in LEO originally from a launch on Wed, 16 Jun 1993 UTC launched from the Plesetsk Missile And Space Complex (PKMTR). The debris from Iridium 33, an American commercial communications satellite, has been tracked extensively since its accidental collision with the defunct Russian satellite Cosmos 2251 in 2009. This event, occurring at high speed in low Earth orbit (LEO), generated thousands of pieces of space debris, significantly increasing the risk of further collisions. The Iridium 33 debris cloud has impacted space traffic management and orbital debris mitigation strategies, making it a subject of ongoing study in space situational awareness.

Loading next visibility...
Identifier
34059, 1993-036JW
Orbit
LEO
Country
Flag of CISCIS
Related business
Manufacturer
Unknown
Mission
Spacecraft
Bus & Motor
Unknown
Mass
Unknown
Launch date (UTC)
1993-06-16 (33 years ago)
Launch vehicle
Unknown
Launch site
Plesetsk Missile And Space Complex (PKMTR)
Object type
Payload
Rocket body
Debris
Shape & HBR
Unknown shape, 0.2 m
Radar Cross Section
Small (<0.1 m²)

Expand to show TLE details & history
Last TLE update: 12 hours ago

TLE from 12 hours ago
0 COSMOS 2251 DEB
1 34059U 93036JW  26035.59121509  .00003284  00000-0  79433-3 0  9996
2 34059  74.0373  84.6549 0016046 156.2662   6.0335 14.53385173892419
Epoch: 2026-02-04T14:11Z
TLE epoch observation values (Epoch: 2026-02-04T14:11:20.983Z)
Latitude
16.97073°
Longitude
-87.91896°
Altitude
705.303 km
Speed
7.511 km/s
True Right ascension
17h 18m 41s
True Declination
16° 52' 27"
Sunlit
Object was in daylight at epoch
Visualization orbit readout
Latitude
Unknown
Longitude
Unknown
Altitude
Unknown
Speed
Unknown
Apparent Right ascension
Unknown
Apparent Declination
Unknown
Sunlit
N/A
Visualization observer readout
Local Sidereal Time
04:11:34
Azimuth
Unknown
Elevation
Unknown
Doppler factor
Unknown
Orbital elements
Apogee altitude
723.596 km
Perigee altitude
700.841 km
Semi-major axis
7,090.355 km
Eccentricity
0.0016
Inclination
74.0373°
RAAN
84.6549°
Arg. of periapsis
156.2662°
True anomaly
6.05287°
Mean anomaly
6.0335°
Eccentric anomaly
6.04318°
Mean motion
3.63531 °/min
Orbital period
99.03 mins
BSTAR
0.00079433
Loading maneuver chart data...
Computing Atmospheric mass density...

Documentation

Showing up to 5 results
|